SCP
0 0 0 0 0 0 0 0 0 0 0 0 0 0 0 0 0 0 0 0 -0 -0 -0 -0 -0 -0 0 0 0 -0 -0 -0 -0 -0 -0 -0 -0 -0 -0 -0 0 0 0 0 -0 -0 -0 -0 -0
0 0 0 0 0 0 0 0 0 0 0 0 0 0 0 0 0 0 0 -0 -0 -0 -0 -0 -0 -0 -0 0 0 0 -0 -0 -0 -0 -0 -0 0 0 0 0 0 0 0 0 0 0 0 0 0
0 0 0 0 0 -0 0 0 0 0 0 0 0 0 0 0 0 0 0 0 -0 0 0 0 -0 -0 -0 0 0 0 0 0 0 0 0 0 0 0 0 0 0 0 0 0 0 0 0 0 0
0 0 0 0 0 0 -0 0 0 0 0 0 0 0 0 0 0 0 -0 -0 0 0 0 0 -0 -0 -0 -0 0 0 0 0 0 0 0 0 0 0 0 0 0 0 0 0 0 0 0 0 0
0 0 0 0 0 0 -0 -0 0 0 0 0 0 0 0 0 0 -0 0 0 0 0 0 0 -0 -0 -0 0 0 0 0 0 0 0 0 0 0 0 0 0 0 0 0 0 0 0 0 0 0
0 0 0 0 0 0 -0 0 0 0 0 0 0 0 0 0 0 0 0 0 0 0 0 0 0 0 0 0 0 0 0 0 0 0 0 0 0 0 0 0 0 0 0 0 0 0 0 0 0
0 0 0 0 0 -0 -0 0 0 0 0 0 0 0 0 0 0 0 0 0 0 0 0 0 0 0 0 0 0 0 0 0 0 0 0 0 0 0 0 0 0 0 0 0 0 0 0 0 0
0 0 0 0 0 0 -0 0 0 0 0 0 0 0 0 0 0 0 0 0 0 0 0 0 0 0 0 0 0 0 0 0 0 0 0 0 0 0 0 0 0 0 0 0 0 0 0 0 0
0 0 0 0 0 0 0 0 0 0 0 0 0 0 0 0 0 0 0 0 0 0 0 0 0 0 0 0 0 0 0 0 0 0 0 0 0 0 0 0 0 0 0 0 0 0 0 0 0
0 0 0 0 0 0 0 0 0 0 0 0 0 0 0 0 0 0 0 0 0 0 0 0 0 0 0 0 0 0 0 0 0 0 0 0 0 0 0 0 0 0 0 0 0 0 0 0 0
0 0 0 0 0 0 -0 -0 0 0 0 0 0 0 0 0 0 0 0 0 0 0 0 0 0 0 0 0 0 0 0 0 0 0 0 0 0 0 0 0 0 0 0 0 0 0 0 0 0
0 0 0 0 0 0 -0 -0 0 0 0 0 0 0 0 0 0 0 0 0 0 0 0 0 0 0 0 0 0 0 0 0 0 0 0 0 0 0 0 0 0 0 0 0 0 0 0 0 0
0 0 0 0 0 0 -0 -0 0 0 0 0 0 0 0 0 0 0 0 0 0 0 0 0 0 0 0 0 0 0 0 0 0 0 0 0 0 0 0 0 0 0 0 0 0 0 0 0 0
0 0 0 0 0 0 0 -0 -0 0 0 0 0 0 0 0 0 0 0 0 0 0 0 0 0 0 0 0 0 0 0 0 0 0 0 0 0 0 0 0 0 0 0 0 0 0 0 0 0
0 0 0 0 0 0 0 0 -0 0 0 0 0 0 0 0 0 0 0 0 0 0 0 0 0 0 0 0 0 0 0 0 0 0 0 0 0 0 0 0 0 0 0 0 0 0 0 0 0
0 0 0 0 0 0 0 0 -0 -0 0 0 0 0 0 0 0 0 0 0 0 0 0 0 0 0 0 0 0 0 0 0 0 0 0 0 0 0 0 0 0 0 0 0 0 0 0 0 0
0 0 0 0 0 0 0 0 0 -0 0 0 0 0 0 0 0 0 0 0 0 0 0 0 0 0 0 0 0 0 0 0 0 0 0 0 0 0 0 0 0 0 0 0 0 0 0 0 0
0 0 0 0 0 0 0 0 0 0 0 0 0 0 0 0 0 0 0 0 0 0 0 0 0 0 0 0 0 0 0 0 0 0 0 0 0 0 0 0 0 0 0 0 0 0 0 0 0
0 0 0 0 0 0 0 -0 0 0 0 1 0 0 0 0 0 0 0 0 0 0 0 0 0 0 0 0 0 0 0 0 0 0 0 0 0 0 0 0 0 0 0 0 0 0 0 0 0
0 0 0 0 0 0 0 0 0 0 0 0 0 0 0 0 0 0 0 0 0 0 0 0 0 0 0 0 0 0 0 0 0 0 0 0 0 0 0 0 0 0 0 0 0 0 0 0 0
0 0 0 0 -0 0 0 0 0 -0 0 0 0 0 0 0 0 0 0 0 0 0 0 0 0 0 0 0 0 0 0 0 0 0 0 0 0 0 0 0 0 0 0 0 0 0 0 0 0
0 0 0 0 0 0 0 -0 -0 -0 0 -0 0 0 0 0 0 0 0 0 0 0 0 0 0 0 0 0 0 0 0 0 0 0 0 0 0 0 0 0 0 0 0 0 0 0 0 0 0
-0 0 0 0 0 -0 -0 0 -0 -0 -0 0 0 0 0 0 0 0 0 0 0 0 0 0 0 0 0 0 0 0 0 0 0 0 0 0 0 0 0 0 0 0 0 0 0 0 0 0 0
0 0 0 0 0 0 0 0 -0 -0 -0 0 0 0 0 0 0 0 0 0 0 0 0 0 0 0 0 0 0 0 0 0 0 0 0 0 0 0 0 0 0 0 0 0 0 0 0 0 0
0 0 0 0 0 0 -0 0 -0 -0 -0 -0 0 0 0 0 0 0 0 0 0 0 0 0 0 0 0 0 0 0 0 0 0 0 0 0 0 0 0 0 0 0 0 0 0 0 0 0 0
0 0 0 0 0 0 0 -0 -0 0 0 0 0 0 0 0 0 0 0 0 0 0 0 0 0 0 0 0 0 0 0 0 0 0 0 0 0 0 0 0 0 0 0 0 0 0 0 0 0
-0 0 0 -0 -0 -0 0 0 0 0 0 0 0 0 0 0 0 0 0 0 0 0 0 0 0 0 0 0 0 0 0 0 0 0 0 0 0 0 0 0 0 0 0 0 0 0 0 0 0
-0 -0 -0 -0 -0 -0 0 0 0 0 0 0 0 0 0 0 0 0 0 0 0 0 0 0 0 0 0 0 0 0 0 0 0 0 0 0 0 0 0 0 0 0 0 0 0 0 0 0 0
-0 0 -0 -0 -0 -0 0 0 0 0 0 0 0 0 0 0 0 0 0 0 0 0 0 0 0 0 0 0 0 0 0 0 0 0 0 0 0 0 0 0 0 0 0 0 0 0 0 0 0
-0 -0 0 -0 -0 -0 -0 -0 0 0 0 0 0 0 0 0 0 0 0 0 0 0 0 0 0 0 0 0 0 0 0 0 0 0 0 0 0 0 0 0 0 0 0 0 0 0 0 0 0
Wind_Speed_500mb
21 13 11 13 6 7 6 12 5 7 4 8 19 15 18 11 8 7 28 53 54 51 51 48 47 41 31 34 34 29 22 23 24 24 24 24 25 25 25 25 26 24 25 26 27 27 26 26 25
19 11 7 5 5 3 10 8 10 9 21 47 33 25 11 6 11 30 60 41 52 50 53 50 49 40 29 31 33 30 27 26 25 25 25 25 24 23 23 23 22 23 25 26 26 26 26 26 25
15 8 1 6 6 8 10 9 11 16 49 19 17 19 10 22 20 59 47 56 57 53 51 48 44 35 30 31 32 31 29 27 26 26 25 24 23 22 22 22 24 24 24 25 26 26 27 26 26
7 2 4 6 14 14 12 11 19 3 11 12 39 19 13 8 47 44 50 55 58 50 47 45 41 35 31 31 32 31 30 28 27 25 24 23 22 21 23 23 24 25 25 25 25 25 25 25 24
5 6 0 6 12 12 7 20 29 13 8 17 15 14 16 37 24 47 54 57 55 49 46 47 43 36 31 31 30 29 28 27 26 24 23 22 22 24 24 23 23 24 25 24 24 23 23 23 22
5 2 5 8 13 15 10 27 23 10 14 22 19 24 22 31 33 50 53 57 49 49 52 50 44 35 31 30 30 30 29 27 25 24 24 24 25 24 24 23 23 23 23 23 22 21 21 21 23
8 6 9 12 10 16 9 15 10 25 24 15 43 10 22 43 33 56 52 48 50 48 55 51 46 36 28 30 31 29 28 25 24 25 25 25 25 26 24 23 21 20 18 18 17 18 17 17 15
12 8 10 11 13 22 9 13 24 23 17 33 38 16 19 61 59 59 48 52 45 47 54 52 49 43 33 31 30 29 27 25 25 25 24 25 24 23 20 17 14 14 13 15 15 13 14 15 12
12 5 13 15 15 15 21 5 20 19 36 29 34 25 31 71 79 68 60 52 49 44 51 53 52 46 36 31 31 29 28 28 28 25 18 17 14 14 12 14 13 13 12 11 12 8 10 9 6
19 10 16 11 11 13 37 9 21 12 27 8 27 28 61 87 83 80 79 73 61 55 52 50 54 42 37 32 31 30 29 29 27 21 17 15 15 11 8 8 8 7 6 6 5 4 9 6 9
12 22 10 13 34 39 43 21 25 19 19 30 63 61 98 94 91 84 82 74 70 58 55 57 53 49 40 34 32 29 28 26 27 21 19 13 9 7 3 7 4 4 3 3 3 8 11 5 5
21 18 13 7 31 20 17 31 34 29 45 59 74 80 108 104 100 93 87 81 75 70 64 59 51 48 40 36 31 31 32 28 24 22 18 15 11 11 7 7 3 8 5 2 7 10 5 5 8
26 30 37 34 38 33 37 27 29 40 49 52 64 91 107 111 101 93 86 78 71 69 68 61 54 48 43 40 36 36 34 29 24 20 19 17 13 11 8 10 8 4 2 8 9 1 7 4 2
33 33 36 42 37 30 26 38 20 21 34 47 78 94 101 106 108 97 89 86 77 75 76 62 50 48 52 44 35 38 35 28 25 21 19 16 14 13 12 11 9 6 8 6 4 8 4 4 5
25 32 34 35 25 18 23 37 30 32 35 58 77 79 74 86 96 99 97 90 84 78 72 62 60 56 55 43 39 40 33 31 27 25 21 16 13 16 13 12 8 6 5 7 4 1 2 3 8
11 19 28 9 29 27 10 45 16 29 48 51 50 65 74 86 91 93 91 88 82 73 74 70 67 64 57 49 45 41 35 32 31 25 25 17 9 12 13 12 8 6 8 5 3 5 3 3 9
11 26 25 24 31 12 28 39 22 40 53 58 60 69 73 85 94 88 84 78 72 68 76 74 72 67 61 54 49 47 44 39 29 30 27 22 20 16 14 11 9 10 6 4 4 5 4 1 8
13 15 23 18 4 14 30 38 24 24 49 63 62 66 79 98 91 91 82 74 74 70 80 77 69 65 60 57 55 53 47 39 37 34 28 23 20 18 13 12 12 7 5 5 4 7 8 4 5
25 32 36 25 7 10 28 29 20 32 40 56 59 71 80 77 89 88 83 81 77 75 75 82 74 67 64 64 61 55 51 43 37 32 32 24 19 17 17 14 9 6 6 5 5 6 6 3 6
31 32 34 26 25 14 25 35 19 27 26 43 65 65 75 75 87 93 96 90 84 82 80 76 73 75 68 67 63 58 51 46 38 39 31 23 21 20 16 12 9 7 5 6 7 7 5 6 11
27 31 35 30 4 18 18 17 32 18 29 33 59 85 81 104 101 94 93 91 86 86 85 87 84 77 77 69 66 59 52 46 47 40 32 29 25 20 15 10 8 5 2 5 7 8 7 5 5
32 13 36 28 15 16 6 11 18 22 19 16 35 68 68 80 95 100 95 93 87 86 86 86 83 81 74 75 74 57 57 56 51 43 37 32 29 21 15 11 7 3 2 5 8 9 9 9 5
26 16 39 32 22 18 13 11 4 18 11 16 18 36 79 90 100 100 97 90 84 82 83 80 82 83 81 79 63 58 63 60 54 46 42 37 28 22 16 11 4 2 4 7 9 9 9 8 7
8 15 29 10 15 17 26 22 10 17 27 25 24 11 41 79 83 92 84 83 80 74 77 78 79 78 72 67 61 67 66 62 56 51 42 34 27 21 16 11 6 1 4 7 8 8 9 9 9
11 12 8 7 8 9 17 19 33 18 26 32 36 35 58 64 88 94 93 83 78 77 76 72 75 77 74 73 69 63 53 42 42 34 33 29 25 21 16 10 4 0 4 5 6 7 8 10 11
15 11 8 10 5 9 16 18 9 9 14 32 44 60 62 48 79 95 96 91 81 77 74 65 70 72 73 70 65 58 51 46 35 29 32 25 20 18 13 9 3 1 4 5 6 7 7 10 12
1 11 7 11 6 6 8 9 9 2 7 15 40 55 65 67 55 86 88 84 76 75 70 65 67 70 71 65 61 62 51 41 37 38 33 26 23 16 11 5 2 3 5 5 7 9 9 12 15
5 6 2 2 7 10 4 4 4 7 8 17 26 38 48 57 57 66 79 78 74 72 72 61 59 61 65 66 63 57 48 37 34 34 30 28 22 14 9 5 4 5 6 6 8 11 12 14 18
7 11 9 4 7 6 11 5 5 11 6 8 24 45 53 57 66 65 69 74 84 81 74 73 67 68 67 72 65 54 46 42 37 35 32 27 18 13 8 5 7 7 8 9 11 14 17 19 21
5 8 13 5 8 6 5 10 12 13 12 5 21 29 36 51 58 64 69 66 72 73 72 77 70 70 66 59 52 44 37 36 44 39 33 22 16 12 8 7 9 9 10 12 15 18 20 23 27
Wind_Direction_500mb
328 291 283 321 17 58 248 245 291 177 105 70 137 150 144 98 150 201 151 158 164 159 158 162 164 169 159 157 168 173 164 152 143 130 120 111 104 97 91 86 85 83 82 80 76 74 73 72 70
334 276 306 324 88 308 265 261 219 216 146 118 93 101 96 117 142 139 149 158 168 161 162 163 166 172 171 164 168 169 162 152 140 127 118 112 106 101 95 92 91 90 83 76 75 74 73 71 70
323 269 207 123 150 205 242 288 228 179 161 145 111 93 108 141 163 153 157 163 170 166 166 165 171 174 171 165 162 159 155 146 133 125 122 116 107 100 95 89 91 86 83 79 74 69 67 66 65
306 194 144 139 236 249 214 297 352 31 172 163 135 85 100 184 157 163 160 163 170 167 166 168 169 165 161 158 156 155 151 141 136 132 124 115 110 105 96 91 85 81 82 80 78 75 70 67 66
279 164 201 243 246 250 183 271 285 235 194 155 146 135 106 136 160 161 160 165 174 167 167 165 164 158 152 154 153 152 144 141 137 133 126 120 111 102 95 89 85 81 78 76 75 74 74 71 67
262 184 142 233 262 276 297 289 282 260 179 151 112 118 146 173 165 160 166 169 173 174 166 164 163 160 155 151 151 148 149 143 136 129 123 116 107 102 95 90 88 86 85 83 81 80 80 73 69
173 127 220 198 250 287 263 335 269 215 170 190 149 96 146 169 176 162 162 172 174 174 170 167 166 161 160 154 153 153 151 144 137 130 122 113 105 99 98 98 96 94 93 91 85 86 78 65 63
219 149 202 215 221 261 252 321 293 252 220 167 158 152 176 174 171 167 166 164 172 178 177 173 174 171 168 160 156 155 150 146 139 132 125 112 104 101 99 97 93 84 85 92 84 66 39 58 46
227 197 218 209 204 259 248 329 337 307 164 179 184 179 188 170 165 166 170 176 180 181 181 180 181 175 176 165 159 157 152 147 140 134 130 123 126 117 109 101 88 86 77 77 64 41 11 53 44
199 210 218 200 206 250 275 242 267 325 264 175 173 181 166 168 171 172 175 178 180 181 188 187 183 176 177 169 167 165 159 157 154 148 139 137 146 145 116 117 89 70 49 6 50 328 323 36 76
220 241 211 228 236 256 275 275 281 256 239 244 170 161 166 173 178 179 181 185 183 183 182 183 180 189 184 179 175 169 165 164 145 147 158 164 154 167 158 147 96 356 323 312 274 311 20 47 88
266 241 221 225 265 293 297 307 283 262 248 241 199 183 171 176 181 183 185 185 184 183 185 185 188 184 184 183 178 175 169 150 141 162 158 166 188 205 219 196 231 252 213 256 314 334 14 91 100
265 268 268 260 263 282 291 283 282 260 269 252 192 173 175 178 182 185 188 187 186 184 186 186 183 177 179 176 182 180 169 158 173 176 176 191 204 230 236 214 213 210 262 313 316 42 128 134 139
301 298 275 261 271 284 285 288 259 243 246 204 177 175 178 178 183 184 186 183 189 183 184 188 186 180 181 185 190 180 170 171 178 186 195 199 208 226 234 209 206 236 283 301 129 136 161 210 254
293 279 279 252 245 266 327 285 238 239 202 185 176 177 177 181 184 184 184 184 187 185 187 190 183 180 190 195 193 181 177 189 196 201 195 201 225 248 208 214 218 264 246 146 151 203 281 257 262
288 270 262 208 230 238 149 257 238 218 195 186 181 172 180 183 183 183 184 184 187 195 193 180 189 186 189 187 189 184 190 196 203 201 198 197 220 208 202 214 251 223 172 183 225 270 257 240 242
242 262 265 268 219 242 203 265 265 221 211 187 183 175 177 182 184 188 188 190 192 188 185 185 190 193 196 192 187 194 203 205 204 200 198 196 191 198 209 236 220 185 193 246 289 305 313 292 210
247 254 250 253 338 226 231 246 291 295 231 196 183 177 182 187 189 194 195 191 190 195 195 193 188 192 193 192 195 201 204 205 203 199 199 188 191 197 210 200 191 205 241 265 300 332 359 16 179
265 274 273 265 27 283 237 240 257 282 273 204 186 176 179 182 186 190 188 189 189 188 192 192 190 194 198 200 199 201 201 201 200 208 181 188 198 199 183 187 201 232 263 288 324 356 11 43 156
271 277 263 253 277 252 272 240 198 268 263 261 187 185 171 166 176 178 181 185 185 188 192 191 190 194 199 206 202 202 201 197 200 187 187 189 184 179 184 197 207 229 268 326 342 351 10 85 164
263 263 265 257 256 244 276 255 235 209 267 322 224 191 181 171 173 178 181 183 186 191 191 193 196 200 202 205 205 198 199 194 185 184 190 182 175 183 192 209 221 227 281 327 333 346 6 55 110
269 282 249 232 237 253 235 278 225 188 220 301 297 178 180 177 180 180 186 184 188 192 196 198 200 203 208 206 202 207 201 194 190 188 183 177 180 186 193 201 207 233 317 346 355 5 13 30 30
270 214 264 247 228 249 212 264 251 147 208 211 304 235 180 184 185 186 187 189 191 195 196 197 199 201 202 202 196 206 197 190 187 184 178 178 183 187 188 191 201 285 347 356 4 12 20 17 16
272 256 250 264 230 238 237 217 194 189 205 196 197 306 226 182 184 185 185 189 191 197 200 197 200 193 198 200 206 203 195 186 178 177 177 176 184 186 182 183 190 283 347 360 2 360 7 3 359
245 271 275 239 221 239 199 215 239 240 194 192 186 200 224 191 182 187 189 190 190 196 200 193 198 197 196 198 198 196 186 174 177 174 185 183 185 184 179 172 162 31 347 348 350 352 3 350 344
291 233 266 258 230 277 160 223 236 303 191 181 182 189 193 205 181 190 187 187 190 189 190 192 200 200 197 192 190 176 165 166 165 188 195 186 188 185 177 165 161 318 326 337 332 327 341 329 328
356 226 203 263 264 206 239 282 285 276 130 138 161 161 172 180 186 185 188 186 189 188 191 195 192 194 184 180 165 157 157 163 177 187 195 186 189 186 169 170 238 281 293 311 313 306 328 324 318
205 328 242 196 285 268 256 274 220 267 175 188 180 172 175 177 186 185 186 181 187 182 184 190 181 189 176 164 159 160 155 157 183 197 192 192 192 176 184 210 259 286 288 297 299 311 315 312 314
11 318 231 237 225 255 311 279 273 288 294 180 175 184 172 177 184 191 185 182 180 182 176 176 174 181 171 165 162 157 153 170 185 194 197 194 181 190 205 235 264 273 286 303 310 310 311 311 311
113 222 278 188 294 231 241 271 296 329 328 183 164 168 167 172 177 190 190 189 180 179 182 176 175 181 170 157 160 164 172 170 192 192 194 183 196 208 227 255 263 278 297 308 305 306 309 314 315
Wind_Speed_850mb
21 13 11 13 6 7 6 12 5 7 4 8 19 15 18 11 8 7 28 53 54 51 51 48 47 41 31 34 34 29 22 23 24 24 24 24 25 25 25 25 26 24 25 26 27 27 26 26 25
19 11 7 5 5 3 10 8 10 9 21 47 33 25 11 6 11 30 60 41 52 50 53 50 49 40 29 31 33 30 27 26 25 25 25 25 24 23 23 23 22 23 25 26 26 26 26 26 25
15 8 1 6 6 8 10 9 11 16 49 19 17 19 10 22 20 59 47 56 57 53 51 48 44 35 30 31 32 31 29 27 26 26 25 24 23 22 22 22 24 24 24 25 26 26 27 26 26
7 2 4 6 14 14 12 11 19 3 11 12 39 19 13 8 47 44 50 55 58 50 47 45 41 35 31 31 32 31 30 28 27 25 24 23 22 21 23 23 24 25 25 25 25 25 25 25 24
5 6 0 6 12 12 7 20 29 13 8 17 15 14 16 37 24 47 54 57 55 49 46 47 43 36 31 31 30 29 28 27 26 24 23 22 22 24 24 23 23 24 25 24 24 23 23 23 22
5 2 5 8 13 15 10 27 23 10 14 22 19 24 22 31 33 50 53 57 49 49 52 50 44 35 31 30 30 30 29 27 25 24 24 24 25 24 24 23 23 23 23 23 22 21 21 21 23
8 6 9 12 10 16 9 15 10 25 24 15 43 10 22 43 33 56 52 48 50 48 55 51 46 36 28 30 31 29 28 25 24 25 25 25 25 26 24 23 21 20 18 18 17 18 17 17 15
12 8 10 11 13 22 9 13 24 23 17 33 38 16 19 61 59 59 48 52 45 47 54 52 49 43 33 31 30 29 27 25 25 25 24 25 24 23 20 17 14 14 13 15 15 13 14 15 12
12 5 13 15 15 15 21 5 20 19 36 29 34 25 31 71 79 68 60 52 49 44 51 53 52 46 36 31 31 29 28 28 28 25 18 17 14 14 12 14 13 13 12 11 12 8 10 9 6
19 10 16 11 11 13 37 9 21 12 27 8 27 28 61 87 83 80 79 73 61 55 52 50 54 42 37 32 31 30 29 29 27 21 17 15 15 11 8 8 8 7 6 6 5 4 9 6 9
12 22 10 13 34 39 43 21 25 19 19 30 63 61 98 94 91 84 82 74 70 58 55 57 53 49 40 34 32 29 28 26 27 21 19 13 9 7 3 7 4 4 3 3 3 8 11 5 5
21 18 13 7 31 20 17 31 34 29 45 59 74 80 108 104 100 93 87 81 75 70 64 59 51 48 40 36 31 31 32 28 24 22 18 15 11 11 7 7 3 8 5 2 7 10 5 5 8
26 30 37 34 38 33 37 27 29 40 49 52 64 91 107 111 101 93 86 78 71 69 68 61 54 48 43 40 36 36 34 29 24 20 19 17 13 11 8 10 8 4 2 8 9 1 7 4 2
33 33 36 42 37 30 26 38 20 21 34 47 78 94 101 106 108 97 89 86 77 75 76 62 50 48 52 44 35 38 35 28 25 21 19 16 14 13 12 11 9 6 8 6 4 8 4 4 5
25 32 34 35 25 18 23 37 30 32 35 58 77 79 74 86 96 99 97 90 84 78 72 62 60 56 55 43 39 40 33 31 27 25 21 16 13 16 13 12 8 6 5 7 4 1 2 3 8
11 19 28 9 29 27 10 45 16 29 48 51 50 65 74 86 91 93 91 88 82 73 74 70 67 64 57 49 45 41 35 32 31 25 25 17 9 12 13 12 8 6 8 5 3 5 3 3 9
11 26 25 24 31 12 28 39 22 40 53 58 60 69 73 85 94 88 84 78 72 68 76 74 72 67 61 54 49 47 44 39 29 30 27 22 20 16 14 11 9 10 6 4 4 5 4 1 8
13 15 23 18 4 14 30 38 24 24 49 63 62 66 79 98 91 91 82 74 74 70 80 77 69 65 60 57 55 53 47 39 37 34 28 23 20 18 13 12 12 7 5 5 4 7 8 4 5
25 32 36 25 7 10 28 29 20 32 40 56 59 71 80 77 89 88 83 81 77 75 75 82 74 67 64 64 61 55 51 43 37 32 32 24 19 17 17 14 9 6 6 5 5 6 6 3 6
31 32 34 26 25 14 25 35 19 27 26 43 65 65 75 75 87 93 96 90 84 82 80 76 73 75 68 67 63 58 51 46 38 39 31 23 21 20 16 12 9 7 5 6 7 7 5 6 11
27 31 35 30 4 18 18 17 32 18 29 33 59 85 81 104 101 94 93 91 86 86 85 87 84 77 77 69 66 59 52 46 47 40 32 29 25 20 15 10 8 5 2 5 7 8 7 5 5
32 13 36 28 15 16 6 11 18 22 19 16 35 68 68 80 95 100 95 93 87 86 86 86 83 81 74 75 74 57 57 56 51 43 37 32 29 21 15 11 7 3 2 5 8 9 9 9 5
26 16 39 32 22 18 13 11 4 18 11 16 18 36 79 90 100 100 97 90 84 82 83 80 82 83 81 79 63 58 63 60 54 46 42 37 28 22 16 11 4 2 4 7 9 9 9 8 7
8 15 29 10 15 17 26 22 10 17 27 25 24 11 41 79 83 92 84 83 80 74 77 78 79 78 72 67 61 67 66 62 56 51 42 34 27 21 16 11 6 1 4 7 8 8 9 9 9
11 12 8 7 8 9 17 19 33 18 26 32 36 35 58 64 88 94 93 83 78 77 76 72 75 77 74 73 69 63 53 42 42 34 33 29 25 21 16 10 4 0 4 5 6 7 8 10 11
15 11 8 10 5 9 16 18 9 9 14 32 44 60 62 48 79 95 96 91 81 77 74 65 70 72 73 70 65 58 51 46 35 29 32 25 20 18 13 9 3 1 4 5 6 7 7 10 12
1 11 7 11 6 6 8 9 9 2 7 15 40 55 65 67 55 86 88 84 76 75 70 65 67 70 71 65 61 62 51 41 37 38 33 26 23 16 11 5 2 3 5 5 7 9 9 12 15
5 6 2 2 7 10 4 4 4 7 8 17 26 38 48 57 57 66 79 78 74 72 72 61 59 61 65 66 63 57 48 37 34 34 30 28 22 14 9 5 4 5 6 6 8 11 12 14 18
7 11 9 4 7 6 11 5 5 11 6 8 24 45 53 57 66 65 69 74 84 81 74 73 67 68 67 72 65 54 46 42 37 35 32 27 18 13 8 5 7 7 8 9 11 14 17 19 21
5 8 13 5 8 6 5 10 12 13 12 5 21 29 36 51 58 64 69 66 72 73 72 77 70 70 66 59 52 44 37 36 44 39 33 22 16 12 8 7 9 9 10 12 15 18 20 23 27
Wind_Direction_850mb
328 291 283 321 17 58 248 245 291 177 105 70 137 150 144 98 150 201 151 158 164 159 158 162 164 169 159 157 168 173 164 152 143 130 120 111 104 97 91 86 85 83 82 80 76 74 73 72 70
334 276 306 324 88 308 265 261 219 216 146 118 93 101 96 117 142 139 149 158 168 161 162 163 166 172 171 164 168 169 162 152 140 127 118 112 106 101 95 92 91 90 83 76 75 74 73 71 70
323 269 207 123 150 205 242 288 228 179 161 145 111 93 108 141 163 153 157 163 170 166 166 165 171 174 171 165 162 159 155 146 133 125 122 116 107 100 95 89 91 86 83 79 74 69 67 66 65
306 194 144 139 236 249 214 297 352 31 172 163 135 85 100 184 157 163 160 163 170 167 166 168 169 165 161 158 156 155 151 141 136 132 124 115 110 105 96 91 85 81 82 80 78 75 70 67 66
279 164 201 243 246 250 183 271 285 235 194 155 146 135 106 136 160 161 160 165 174 167 167 165 164 158 152 154 153 152 144 141 137 133 126 120 111 102 95 89 85 81 78 76 75 74 74 71 67
262 184 142 233 262 276 297 289 282 260 179 151 112 118 146 173 165 160 166 169 173 174 166 164 163 160 155 151 151 148 149 143 136 129 123 116 107 102 95 90 88 86 85 83 81 80 80 73 69
173 127 220 198 250 287 263 335 269 215 170 190 149 96 146 169 176 162 162 172 174 174 170 167 166 161 160 154 153 153 151 144 137 130 122 113 105 99 98 98 96 94 93 91 85 86 78 65 63
219 149 202 215 221 261 252 321 293 252 220 167 158 152 176 174 171 167 166 164 172 178 177 173 174 171 168 160 156 155 150 146 139 132 125 112 104 101 99 97 93 84 85 92 84 66 39 58 46
227 197 218 209 204 259 248 329 337 307 164 179 184 179 188 170 165 166 170 176 180 181 181 180 181 175 176 165 159 157 152 147 140 134 130 123 126 117 109 101 88 86 77 77 64 41 11 53 44
199 210 218 200 206 250 275 242 267 325 264 175 173 181 166 168 171 172 175 178 180 181 188 187 183 176 177 169 167 165 159 157 154 148 139 137 146 145 116 117 89 70 49 6 50 328 323 36 76
220 241 211 228 236 256 275 275 281 256 239 244 170 161 166 173 178 179 181 185 183 183 182 183 180 189 184 179 175 169 165 164 145 147 158 164 154 167 158 147 96 356 323 312 274 311 20 47 88
266 241 221 225 265 293 297 307 283 262 248 241 199 183 171 176 181 183 185 185 184 183 185 185 188 184 184 183 178 175 169 150 141 162 158 166 188 205 219 196 231 252 213 256 314 334 14 91 100
265 268 268 260 263 282 291 283 282 260 269 252 192 173 175 178 182 185 188 187 186 184 186 186 183 177 179 176 182 180 169 158 173 176 176 191 204 230 236 214 213 210 262 313 316 42 128 134 139
301 298 275 261 271 284 285 288 259 243 246 204 177 175 178 178 183 184 186 183 189 183 184 188 186 180 181 185 190 180 170 171 178 186 195 199 208 226 234 209 206 236 283 301 129 136 161 210 254
293 279 279 252 245 266 327 285 238 239 202 185 176 177 177 181 184 184 184 184 187 185 187 190 183 180 190 195 193 181 177 189 196 201 195 201 225 248 208 214 218 264 246 146 151 203 281 257 262
288 270 262 208 230 238 149 257 238 218 195 186 181 172 180 183 183 183 184 184 187 195 193 180 189 186 189 187 189 184 190 196 203 201 198 197 220 208 202 214 251 223 172 183 225 270 257 240 242
242 262 265 268 219 242 203 265 265 221 211 187 183 175 177 182 184 188 188 190 192 188 185 185 190 193 196 192 187 194 203 205 204 200 198 196 191 198 209 236 220 185 193 246 289 305 313 292 210
247 254 250 253 338 226 231 246 291 295 231 196 183 177 182 187 189 194 195 191 190 195 195 193 188 192 193 192 195 201 204 205 203 199 199 188 191 197 210 200 191 205 241 265 300 332 359 16 179
265 274 273 265 27 283 237 240 257 282 273 204 186 176 179 182 186 190 188 189 189 188 192 192 190 194 198 200 199 201 201 201 200 208 181 188 198 199 183 187 201 232 263 288 324 356 11 43 156
271 277 263 253 277 252 272 240 198 268 263 261 187 185 171 166 176 178 181 185 185 188 192 191 190 194 199 206 202 202 201 197 200 187 187 189 184 179 184 197 207 229 268 326 342 351 10 85 164
263 263 265 257 256 244 276 255 235 209 267 322 224 191 181 171 173 178 181 183 186 191 191 193 196 200 202 205 205 198 199 194 185 184 190 182 175 183 192 209 221 227 281 327 333 346 6 55 110
269 282 249 232 237 253 235 278 225 188 220 301 297 178 180 177 180 180 186 184 188 192 196 198 200 203 208 206 202 207 201 194 190 188 183 177 180 186 193 201 207 233 317 346 355 5 13 30 30
270 214 264 247 228 249 212 264 251 147 208 211 304 235 180 184 185 186 187 189 191 195 196 197 199 201 202 202 196 206 197 190 187 184 178 178 183 187 188 191 201 285 347 356 4 12 20 17 16
272 256 250 264 230 238 237 217 194 189 205 196 197 306 226 182 184 185 185 189 191 197 200 197 200 193 198 200 206 203 195 186 178 177 177 176 184 186 182 183 190 283 347 360 2 360 7 3 359
245 271 275 239 221 239 199 215 239 240 194 192 186 200 224 191 182 187 189 190 190 196 200 193 198 197 196 198 198 196 186 174 177 174 185 183 185 184 179 172 162 31 347 348 350 352 3 350 344
291 233 266 258 230 277 160 223 236 303 191 181 182 189 193 205 181 190 187 187 190 189 190 192 200 200 197 192 190 176 165 166 165 188 195 186 188 185 177 165 161 318 326 337 332 327 341 329 328
356 226 203 263 264 206 239 282 285 276 130 138 161 161 172 180 186 185 188 186 189 188 191 195 192 194 184 180 165 157 157 163 177 187 195 186 189 186 169 170 238 281 293 311 313 306 328 324 318
205 328 242 196 285 268 256 274 220 267 175 188 180 172 175 177 186 185 186 181 187 182 184 190 181 189 176 164 159 160 155 157 183 197 192 192 192 176 184 210 259 286 288 297 299 311 315 312 314
11 318 231 237 225 255 311 279 273 288 294 180 175 184 172 177 184 191 185 182 180 182 176 176 174 181 171 165 162 157 153 170 185 194 197 194 181 190 205 235 264 273 286 303 310 310 311 311 311
113 222 278 188 294 231 241 271 296 329 328 183 164 168 167 172 177 190 190 189 180 179 182 176 175 181 170 157 160 164 172 170 192 192 194 183 196 208 227 255 263 278 297 308 305 306 309 314 315